Retour au catalogue

PEGASUS DEB

ActifPO
NORAD 24126·DEBRIS·🇺🇸 United States

Lancé May 19, 1994 depuis Vandenberg Space Force Base

Loading…

Prochains Passages (prochaines 24 heures)

TLE

FraisSource: Space-Track

Époque: Sep 14, 2026, 11:58 UTC

1 24126U 94029FZ  26257.49914562  .00002778  00000-0  53459-3 0  9994
2 24126  81.7961 256.8751 0265629 259.4313 271.3152 14.43210492566840

Suivez PEGASUS DEB en temps réel avec AllMySat

Download on the App Store